Regional Weather Roundup
Issued by NWS

Home | Current Version | Previous Version | Graphics & Text | Print | Product List | Glossary On
Versions: 1 2 3 4 5 6 7 8 9 10 11 12 13 14 15 16 17 18 19 20 21 22 23 24 25 26 27 28 29 30 31 32 33 34 35 36 37 38 39 40 41 42 43 44 45 46 47 48 49 50
000
ASUS44 KMEG 161410
RWRTN
TENNESSEE HOURLY STATE WEATHER ROUNDUP
NATIONAL WEATHER SERVICE MEMPHIS TN
800 AM CST TUE JAN 16 2018

TNZ002-004-019-021-049-052-054-088>092-161500-
WEST TENNESSEE

CITY           SKY/WX    TMP DP  RH WIND       PRES   REMARKS
MEMPHIS INTL   MOCLDY    15   5  64 N13       30.67R WCI   1
NWS MEMPHIS      N/A     14 N/A N/A MISG        N/A
JACKSON        LGT SNOW  13   9  84 N7        30.65S FOG     WCI   3
SOMERVILLE     CLOUDY    14  10  85 N9        30.64R FOG     WCI   2
COVINGTON      MOCLDY    10   3  72 N15       30.69R WCI  -6
UNION CITY     CLEAR      9   0  66 N8        30.67R WCI  -4
BOLIVAR        CLOUDY    14  10  85 N8        30.64R FOG     WCI   3
PARIS          CLOUDY    10   1  67 N6        30.62R WCI   1
HUNTINGDON     CLOUDY    12   5  73 N5        30.62S WCI   4
LEXINGTON      CLOUDY    14   9  79 N10G17    30.61S HAZE    WCI   1
SELMER         MOCLDY    14  10  85 VRB5      30.60R FOG     WCI   6
SAVANNAH       CLOUDY    16  12  86 NW10G18   30.60R FOG     WCI   3
$$

TNZ008-025-027-028-033-062-065-066-161500-
NORTH MIDDLE TENNESSEE

CITY           SKY/WX    TMP DP  RH WIND       PRES   REMARKS
NASHVILLE      LGT SNOW  15  10  80 N13       30.58R VSB 1   WCI   1
PORTLAND       CLOUDY    10   5  79 N12       30.56S HAZE    WCI  -4
CLARKSVILLE    LGT SNOW  10   5  80 N8        30.62R WCI  -2
SMYRNA         LGT SNOW  16  12  86 NW14      30.58R FOG     WCI   1
COOKEVILLE     CLOUDY    19  16  86 N6        30.48R FOG     WCI  11
GALLATIN       CLOUDY    12   9  85 N13       30.60S HAZE    WCI  -3
CROSSVILLE     CLOUDY    21  18  88 NW6       30.39S WCI  13
$$

TNZ061-075-076-078-094-096-097-161500-
SOUTH MIDDLE TENNESSEE

CITY           SKY/WX    TMP DP  RH WIND       PRES   REMARKS
FAYETTEVILLE   CLOUDY    21  18  86 N12       30.47R WCI   9
TULLAHOMA      CLOUDY    19  16  86 N13       30.47S FOG     WCI   7
WINCHESTER     CLOUDY    21  18  86 N7        30.46F WCI  13
MCMINNVILLE    CLOUDY    19  16  86 N7        30.48S FOG     WCI  10
COLUMBIA       FOG       16  14  93 N8        30.54R VSB 1   WCI   5
SHELBYVILLE    FOG       18  16  93 N8        30.52R VSB 1/4 WCI   7
$$

TNZ017-018-042-046-047-161500-
NORTHEAST TENNESSEE

CITY           SKY/WX    TMP DP  RH WIND       PRES   REMARKS
TRI CITIES     FAIR      28  27  96 CALM      30.38R
ELIZABETHTON   FAIR      30  27  86 CALM      30.38R
$$

TNZ012-013-036-069-073-074-161500-
CENTRAL EAST TENNESSEE

CITY           SKY/WX    TMP DP  RH WIND       PRES   REMARKS
KNOXVILLE      PTSUNNY   33  28  81 SW6       30.41R WCI  28
OAK RIDGE      CLOUDY    33  28  81 CALM      30.43R
DOWNTOWN KNOXV FOG       34  30  86 CALM      30.42F VSB 1/4
GATLINBURG     SUNNY     27  25  93 CALM      30.42R
MORRISTOWN     MOSUNNY   34  28  80 CALM      30.39R
JACKSBORO      CLOUDY    30  27  86 CALM      30.45R
$$

TNZ083-085-099-161500-
SOUTHEAST TENNESSEE

CITY           SKY/WX    TMP DP  RH WIND       PRES   REMARKS
CHATTANOOGA    PTSUNNY   33  27  78 CALM      30.44R
DAYTON         CLOUDY    34  30  86 CALM      30.43R
$$

SKY/WX REPORTED AS FAIR MEANS FEW OR NO CLOUDS BELOW
12 THOUSAND FEET.





USA.gov is the U.S. government's official web portal to all federal, state and local government web resources and services.